Tracking 19242 objects as of 16-Aug-2018
HD Live streaming from Space Station
objects crossing your sky now

TRANSIT 2A

Track TRANSIT 2A now!
10-day predictions
TRANSIT 2A is classified as:


NORAD ID: 45
Int'l Code: 1960-007A
Perigee: 609.3 km
Apogee: 964.4 km
Inclination: 66.7 °
Period: 100.4 minutes
Semi major axis: 7157 km
RCS: 0.4368 m2 (medium)
Launch date: June 22, 1960
Source: United States (US)
Launch site: AIR FORCE EASTERN TEST RANGE (AFETR)
aabbcc
Your satellite tracking list
Your tracking list is empty




NASA's NSSDC Master Catalog

Two Line Element Set (TLE):
1 00045U 60007A   18227.49701968 -.00000076  00000-0  76163-5 0  9998
2 00045  66.6963 351.5951 0248092  84.6299 278.3050 14.33606889 26381
Source of the keplerian elements: AFSPC